Date,TemperatureHighF,TemperatureAvgF,TemperatureLowF,DewpointHighF,DewpointAvgF,DewpointLowF,HumidityHigh,HumidityAvg,HumidityLow,PressureMaxIn,PressureMinIn,WindSpeedMaxMPH,WindSpeedAvgMPH,GustSpeedMaxMPH,PrecipitationSumIn
2012-1-1,39.0,27.4,16.0,12.0,2.9,-2.0,52,35,21,30.66,30.31,23,10,37,0.00
2012-1-2,46.0,34.9,23.0,19.0,13.5,6.0,51,41,32,30.67,30.40,19,11,41,0.00
2012-1-3,47.0,37.3,28.0,15.0,12.5,11.0,51,36,24,30.49,30.20,21,8,46,0.00
2012-1-4,44.0,36.4,31.0,16.0,11.2,7.0,43,35,28,30.56,30.42,32,12,38,0.00
2012-1-5,50.0,38.7,33.0,20.0,14.3,10.0,49,37,24,30.46,30.04,19,10,27,0.00
2012-1-6,40.0,34.2,25.0,17.0,10.6,1.0,53,37,24,30.10,29.98,18,6,31,0.00
2012-1-7,30.0,24.0,12.0,23.0,13.3,2.0,86,65,34,30.14,29.93,14,4,23,0.02
2012-1-8,30.0,19.1,5.0,11.0,6.9,-1.0,79,60,40,30.29,30.04,19,10,34,0.01
2012-1-9,39.0,27.9,19.0,20.0,14.1,7.0,65,56,42,30.35,30.23,28,11,38,0.00
2012-1-10,46.0,34.1,22.0,18.0,14.5,9.0,71,46,25,30.25,29.86,31,12,51,0.00
2012-1-11,29.0,14.0,7.0,21.0,2.0,-15.0,83,59,32,30.12,29.88,17,7,46,0.00
2012-1-12,26.0,17.3,9.0,-1.0,-4.9,-13.0,46,37,28,30.16,30.02,18,10,31,0.00
2012-1-13,34.0,23.7,15.0,4.0,-0.3,-5.0,46,35,24,30.20,30.05,19,8,41,0.00
2012-1-14,44.0,34.7,26.0,13.0,8.7,2.0,40,34,26,30.22,29.94,20,11,38,0.00
2012-1-15,45.0,37.8,33.0,8.0,4.3,0.0,31,24,17,29.96,29.68,27,17,38,0.00
2012-1-16,34.0,22.7,6.0,25.0,11.2,-7.0,87,63,30,29.96,29.57,30,10,48,0.00
2012-1-17,16.0,8.4,0.0,-3.0,-7.1,-11.0,63,49,34,30.07,29.90,22,10,34,0.00
2012-1-18,32.0,24.7,14.0,22.0,7.5,-4.0,79,48,39,29.91,29.67,41,19,60,0.00
2012-1-19,42.0,36.3,29.0,29.0,25.2,21.0,74,64,54,29.89,29.68,35,18,63,0.00
2012-1-20,37.0,32.8,29.0,27.0,23.6,20.0,88,69,56,29.99,29.74,34,11,53,0.04
2012-1-21,46.0,36.2,29.0,30.0,23.2,16.0,84,60,39,29.88,29.34,43,15,61,0.01
2012-1-22,33.0,24.1,19.0,27.0,12.2,5.0,80,60,51,29.94,29.32,20,10,44,0.00
2012-1-23,36.0,26.9,18.0,18.0,9.6,5.0,63,48,33,29.94,29.81,18,9,30,0.00
2012-1-24,28.0,23.5,17.0,20.0,15.0,9.0,87,70,56,30.24,29.84,21,6,36,0.00
2012-1-25,41.0,29.4,18.0,21.0,12.4,-1.0,66,49,35,30.25,30.05,24,12,43,0.00
2012-1-26,43.0,33.8,26.0,27.0,19.2,14.0,88,57,30,30.22,29.83,28,11,51,0.00
2012-1-27,30.0,20.4,9.0,19.0,8.8,-3.0,81,61,44,30.26,29.87,21,7,51,0.00
2012-1-28,29.0,21.1,9.0,0.0,-3.9,-9.0,56,33,25,30.29,30.14,24,10,48,0.00
2012-1-29,41.0,30.0,21.0,17.0,9.3,-4.0,54,41,29,30.34,30.06,21,8,33,0.00
2012-1-30,43.0,33.7,28.0,20.0,13.3,10.0,70,44,28,30.06,29.88,30,11,46,0.00
2012-1-31,39.0,28.9,18.0,17.0,9.5,6.0,64,45,30,30.17,29.95,20,7,49,0.00
2012-2-1,39.0,28.9,20.0,11.0,7.2,4.0,60,41,24,30.23,30.10,18,7,30,0.00
2012-2-2,34.0,26.1,20.0,19.0,11.9,5.0,89,58,35,30.16,29.98,19,9,31,0.00
2012-2-3,21.0,18.2,12.0,18.0,15.1,8.0,96,88,84,30.37,30.14,25,8,38,0.00
2012-2-4,21.0,12.0,5.0,14.0,7.6,1.0,88,82,73,30.40,30.30,11,4,16,0.03
2012-2-5,25.0,13.5,4.0,15.0,6.6,-1.0,83,74,58,30.35,30.17,16,8,27,0.01
2012-2-6,25.0,13.7,3.0,13.0,5.8,-5.0,82,71,49,30.29,30.08,17,6,24,0.00
2012-2-7,21.0,13.1,4.0,10.0,6.2,-2.0,85,74,52,30.29,30.15,22,4,33,0.00
2012-2-8,34.0,25.3,15.0,21.0,12.5,2.0,76,59,42,30.27,30.09,31,8,50,0.00
2012-2-9,32.0,25.6,18.0,18.0,14.6,8.0,73,63,49,30.23,30.13,15,6,26,0.00
2012-2-10,31.0,24.8,16.0,24.0,16.7,12.0,90,72,53,30.19,30.06,26,7,48,0.00
2012-2-11,27.0,18.4,8.0,23.0,14.5,4.0,88,84,79,30.17,29.99,18,2,26,0.17
2012-2-12,37.0,25.7,14.0,27.0,20.3,10.0,92,80,61,30.03,29.66,26,4,34,0.02
2012-2-13,35.0,25.4,16.0,23.0,18.4,10.0,90,75,52,29.81,29.65,14,4,26,0.07
2012-2-14,33.0,25.2,20.0,25.0,17.4,12.0,87,72,57,29.85,29.68,22,6,33,0.05
2012-2-15,33.0,18.5,9.0,15.0,10.4,3.0,85,72,46,30.19,29.80,18,5,32,0.01
2012-2-16,34.0,21.3,6.0,17.0,10.9,2.0,84,65,44,30.26,30.03,30,9,51,0.00
2012-2-17,31.0,22.2,14.0,15.0,10.2,7.0,77,60,48,30.17,30.05,17,7,41,0.00
2012-2-18,36.0,23.8,13.0,14.0,9.0,4.0,79,54,37,30.12,29.86,18,10,36,0.00
2012-2-19,37.0,25.2,14.0,20.0,11.8,3.0,89,59,40,29.88,29.55,16,5,33,0.00
2012-2-20,23.0,18.3,13.0,16.0,6.2,1.0,92,60,39,29.92,29.66,20,7,40,0.00
2012-2-21,31.0,25.0,18.0,24.0,17.0,9.0,86,72,60,29.90,29.76,29,10,55,0.02
2012-2-22,39.0,35.1,30.0,29.0,25.9,22.0,80,69,53,29.85,29.49,29,18,52,0.06
2012-2-23,36.0,18.5,9.0,24.0,8.1,-1.0,86,64,45,30.03,29.51,17,5,40,0.01
2012-2-24,28.0,20.1,12.0,9.0,6.6,4.0,75,56,41,30.17,29.98,24,12,40,0.00
2012-2-25,42.0,28.2,16.0,18.0,9.0,-4.0,72,45,30,30.11,29.58,26,13,44,0.00
2012-2-26,22.0,15.7,9.0,2.0,-3.4,-9.0,56,43,31,30.13,29.73,18,8,35,0.00
2012-2-27,42.0,25.2,6.0,20.0,7.0,-10.0,69,46,34,30.10,29.77,17,6,25,0.00
2012-2-28,32.0,26.1,19.0,26.0,16.6,7.0,90,68,53,29.84,29.53,22,9,50,0.05
2012-2-29,32.0,24.7,16.0,18.0,11.2,4.0,67,56,45,29.88,29.76,29,14,46,0.01
2012-3-1,27.0,20.5,13.0,18.0,5.5,0.0,75,53,32,29.80,29.65,12,5,29,0.00
2012-3-2,21.0,12.3,2.0,6.0,0.4,-6.0,72,59,35,30.09,29.76,18,7,31,0.00
2012-3-3,30.0,21.0,11.0,18.0,10.0,0.0,76,62,51,30.09,29.98,27,15,42,0.00
2012-3-4,42.0,33.1,28.0,21.0,17.9,13.0,69,54,40,30.26,30.07,23,12,37,0.00
2012-3-5,48.0,38.2,26.0,19.0,15.2,10.0,51,39,27,30.23,29.89,21,9,41,0.00
2012-3-6,52.0,43.5,37.0,15.0,12.7,9.0,39,29,18,29.89,29.53,27,15,44,0.00
2012-3-7,42.0,25.3,19.0,22.0,18.4,15.0,89,77,33,30.24,29.58,23,4,32,0.00
2012-3-8,40.0,26.3,14.0,17.0,10.4,4.0,87,55,24,30.57,30.23,21,6,39,0.00
2012-3-9,51.0,34.4,22.0,19.0,11.7,4.0,61,41,19,30.55,30.23,15,8,27,0.00
2012-3-10,57.0,39.5,23.0,22.0,14.4,-99.9,66,41,13,30.23,29.95,21,7,40,0.00
2012-3-11,52.0,39.5,27.0,18.0,11.9,6.0,59,35,15,29.94,29.72,28,9,35,0.00
2012-3-12,52.0,41.8,34.0,20.0,15.9,14.0,45,35,24,30.10,29.83,19,7,29,0.00
2012-3-13,55.0,45.3,36.0,17.0,14.0,11.0,44,29,17,30.07,29.85,26,12,39,0.00
2012-3-14,56.0,46.4,37.0,17.0,12.1,8.0,38,25,18,30.20,29.93,21,9,31,0.00
2012-3-15,58.0,45.9,32.0,23.0,20.9,18.0,64,38,25,30.29,30.13,15,8,27,0.00
2012-3-16,60.0,47.6,31.0,22.0,19.7,17.0,63,34,21,30.16,29.91,26,10,52,0.00
2012-3-17,61.0,48.8,33.0,18.0,15.2,11.0,50,27,15,29.93,29.70,19,9,35,0.00
2012-3-18,59.0,42.5,28.0,28.0,17.8,11.0,76,40,18,29.74,29.31,37,11,64,0.00
2012-3-19,34.0,25.8,19.0,17.0,9.8,4.0,70,51,29,29.77,29.40,22,8,35,0.00
2012-3-20,41.0,28.9,16.0,11.0,5.7,-99.9,71,41,18,30.08,29.76,16,7,30,0.00
2012-3-21,53.0,39.0,29.0,24.0,17.7,9.0,57,43,30,30.19,29.99,27,9,39,0.00
2012-3-22,59.0,43.1,29.0,22.0,17.1,-99.9,61,38,20,30.15,30.01,24,0,34,0.00
2012-3-23,68.0,51.1,31.0,23.0,17.4,15.0,53,28,15,30.19,30.06,23,8,33,0.00
2012-3-24,65.0,48.9,33.0,28.0,19.4,14.0,55,33,14,30.29,30.14,13,7,28,0.00
2012-3-25,65.0,50.2,31.0,28.0,21.6,15.0,66,37,15,30.23,30.01,16,7,32,0.00
2012-3-26,64.0,46.2,35.0,23.0,16.5,8.0,51,32,14,30.02,29.68,31,13,49,0.00
2012-3-27,54.0,41.2,29.0,16.0,13.9,11.0,51,34,19,30.20,29.87,22,10,49,0.00
2012-3-28,62.0,46.9,31.0,20.0,16.6,13.0,51,31,17,30.14,29.96,18,7,28,0.00
2012-3-29,55.0,46.0,37.0,28.0,18.8,9.0,69,36,17,30.14,29.97,29,10,55,0.00
2012-3-30,62.0,49.3,38.0,26.0,24.0,21.0,59,39,22,30.10,29.97,23,8,40,0.00
2012-3-31,69.0,54.6,40.0,29.0,23.6,14.0,55,32,15,30.10,29.83,21,9,32,0.00
2012-4-1,69.0,56.4,41.0,23.0,16.9,12.0,48,23,11,29.84,29.58,23,12,39,0.00
2012-4-2,40.0,30.8,27.0,26.0,23.5,21.0,88,75,50,30.23,29.74,24,9,36,0.00
2012-4-3,36.0,28.6,25.0,27.0,22.6,19.0,87,78,68,30.27,30.08,12,4,23,0.03
2012-4-4,62.0,44.1,25.0,29.0,22.3,16.0,88,48,18,30.11,29.88,27,7,38,0.01
2012-4-5,64.0,49.8,35.0,25.0,17.0,9.0,54,31,12,30.00,29.88,20,6,31,0.01
2012-4-6,56.0,42.8,26.0,21.0,12.7,1.0,53,32,11,30.19,29.67,30,12,52,0.00
2012-4-7,50.0,34.1,21.0,5.0,0.9,-2.0,46,26,13,30.39,30.19,22,10,35,0.00
2012-4-8,62.0,44.7,25.0,9.0,2.7,-2.0,35,18,10,30.39,30.29,14,4,24,0.00
2012-4-9,66.0,49.1,29.0,20.0,7.5,2.0,44,20,10,30.32,30.19,13,6,23,0.00
2012-4-10,70.0,50.4,30.0,26.0,15.4,9.0,45,27,11,30.26,30.11,11,6,20,0.00
2012-4-11,68.0,52.4,37.0,41.0,29.1,20.0,81,44,19,30.18,29.85,19,6,36,0.05
2012-4-12,49.0,40.6,33.0,36.0,26.9,21.0,86,59,35,29.91,29.79,20,9,31,0.07
2012-4-13,49.0,37.9,29.0,29.0,21.0,11.0,85,55,22,29.91,29.81,15,6,24,0.01
2012-4-14,46.0,35.0,29.0,32.0,26.2,-99.9,93,75,35,29.85,29.60,17,3,25,0.14
2012-4-15,38.0,31.5,27.0,30.0,24.0,20.0,90,74,50,30.05,29.65,19,6,28,0.02
2012-4-16,46.0,35.1,25.0,26.0,20.8,18.0,90,59,33,30.23,30.00,18,8,28,0.02
2012-4-17,54.0,43.0,31.0,31.0,24.2,19.0,65,48,31,30.25,30.16,17,8,35,0.01
2012-4-18,57.0,44.8,37.0,35.0,27.9,22.0,85,53,30,30.22,29.98,19,8,30,0.15
2012-4-19,48.0,39.6,32.0,32.0,28.3,22.0,83,65,41,30.20,30.04,14,6,37,0.17
2012-4-20,57.0,44.3,29.0,32.0,28.7,25.0,86,56,38,30.29,30.17,20,7,33,0.01
2012-4-21,66.0,53.1,40.0,31.0,25.4,19.0,63,37,18,30.37,30.22,23,6,33,0.00
2012-4-22,68.0,52.1,34.0,31.0,26.2,19.0,70,40,16,30.44,30.30,21,6,33,0.00
2012-4-23,74.0,57.0,37.0,31.0,25.5,22.0,59,33,16,30.39,30.19,13,6,18,0.00
2012-4-24,72.0,57.9,43.0,32.0,28.0,25.0,50,33,19,30.23,30.03,15,6,32,0.00
2012-4-25,68.0,55.9,40.0,37.0,29.9,25.0,58,39,23,30.25,30.07,16,6,28,0.00
2012-4-26,68.0,53.4,41.0,41.0,35.1,28.0,90,54,24,30.20,29.85,22,7,42,0.32
2012-4-27,43.0,37.9,28.0,40.0,25.2,9.0,90,61,39,30.04,29.71,24,11,56,0.46
2012-4-28,49.0,35.7,24.0,16.0,11.2,-99.9,60,39,23,30.09,29.93,21,8,48,0.00
2012-4-29,52.0,39.1,24.0,20.0,15.0,10.0,61,39,26,30.21,30.01,12,5,26,0.00
2012-4-30,62.0,49.7,34.0,21.0,17.9,15.0,45,30,17,30.14,29.89,20,9,32,0.00
2012-5-1,55.0,48.5,44.0,36.0,28.3,18.0,69,47,29,29.96,29.80,19,9,33,0.00
2012-5-2,61.0,46.5,38.0,41.0,36.3,32.0,87,70,37,30.13,29.85,25,6,36,0.13
2012-5-3,69.0,56.8,42.0,36.0,30.7,25.0,79,41,21,30.14,29.98,17,10,27,0.00
2012-5-4,71.0,58.5,40.0,28.0,24.8,23.0,52,29,17,30.10,30.03,23,8,33,0.00
2012-5-5,69.0,54.9,37.0,30.0,20.2,-99.9,45,27,19,30.24,30.00,19,8,37,0.00
2012-5-6,53.0,40.6,27.0,30.0,17.2,4.0,77,40,25,30.35,30.18,14,4,21,0.00
2012-5-7,38.0,33.2,29.0,33.0,30.0,26.0,94,88,77,30.39,30.28,11,4,21,0.29
2012-5-8,56.0,39.9,27.0,32.0,25.1,21.0,85,59,29,30.35,30.23,18,5,28,0.12
2012-5-9,70.0,52.9,33.0,27.0,21.8,19.0,60,33,15,30.30,30.09,13,6,26,0.00
2012-5-10,50.0,46.9,45.0,19.0,18.7,18.0,35,32,29,30.11,30.07,9,7,14,0.00
2012-5-14,68.0,59.3,43.0,23.0,20.1,17.0,36,22,17,30.41,30.31,11,5,18,0.00
2012-5-15,71.0,55.9,34.0,28.0,21.6,16.0,49,28,15,30.42,30.25,16,6,33,0.00
2012-5-16,73.0,58.7,44.0,35.0,27.8,22.0,46,32,15,30.30,30.12,18,6,31,0.00
2012-5-17,70.0,58.8,46.0,35.0,31.5,26.0,60,37,23,30.13,29.95,17,5,33,0.00
2012-5-18,72.0,56.1,43.0,35.0,30.1,24.0,69,40,19,30.02,29.78,21,7,45,0.00
2012-5-19,48.0,40.9,37.0,39.0,35.0,-99.9,91,82,63,30.29,29.98,17,4,33,0.24
2012-5-20,66.0,50.3,36.0,39.0,31.4,24.0,87,54,23,30.40,30.28,15,6,31,0.12
2012-5-21,74.0,59.0,41.0,34.0,28.2,25.0,52,33,19,30.39,30.20,13,6,21,0.00
2012-5-22,79.0,64.4,49.0,30.0,26.3,23.0,40,25,15,30.21,29.83,19,10,34,0.00
2012-5-23,53.0,44.9,38.0,37.0,32.2,26.0,83,63,36,29.89,29.75,14,4,33,0.05
2012-5-24,52.0,42.3,34.0,29.0,23.0,17.0,75,49,27,29.96,29.75,19,6,33,0.01
2012-5-25,61.0,49.0,35.0,42.0,36.2,23.0,88,63,46,29.94,29.75,17,6,33,0.03
2012-5-26,77.0,61.1,44.0,42.0,32.8,23.0,82,39,15,29.93,29.65,17,8,29,0.01
2012-5-27,56.0,45.3,36.0,28.0,17.5,8.0,65,35,21,30.08,29.87,25,11,43,0.00
2012-5-28,58.0,46.7,37.0,26.0,21.2,17.0,58,38,23,30.26,29.98,29,9,57,0.00
2012-5-29,68.0,52.8,33.0,27.0,21.4,14.0,55,32,15,30.28,30.14,13,5,30,0.00
2012-5-30,68.0,57.3,42.0,32.0,25.7,20.0,46,31,17,30.25,30.11,17,4,38,0.00
2012-5-31,69.0,55.5,41.0,37.0,34.5,31.0,72,47,26,30.29,30.13,11,2,16,0.00
2012-6-1,73.0,61.8,49.0,40.0,35.3,30.0,60,39,23,30.21,30.13,14,5,31,0.00
2012-6-2,76.0,56.8,45.0,49.0,38.0,-99.9,78,53,25,30.18,30.06,16,6,35,0.28
2012-6-3,79.0,65.9,53.0,42.0,36.6,31.0,60,36,20,30.28,30.04,11,5,32,0.17
2012-6-4,82.0,67.3,51.0,40.0,32.9,26.0,44,30,13,30.30,30.14,17,8,30,0.00
2012-6-5,78.0,64.5,47.0,43.0,37.0,27.0,62,38,16,30.20,29.92,13,2,32,0.00
2012-6-6,74.0,58.9,42.0,47.0,32.8,15.0,73,39,25,30.17,29.99,15,8,25,0.00
2012-6-7,76.0,62.0,48.0,47.0,36.5,22.0,85,47,15,30.24,30.11,11,3,23,0.00
2012-6-8,81.0,66.2,44.0,48.0,31.5,25.0,81,34,14,30.25,29.93,16,7,31,0.00
2012-6-9,81.0,69.5,55.0,29.0,24.2,-99.9,33,19,13,29.94,29.77,23,10,40,0.00
2012-6-10,60.0,49.1,36.0,27.0,15.7,9.0,44,28,16,30.30,29.91,27,10,50,0.00
2012-6-11,68.0,53.7,38.0,29.0,23.0,19.0,49,32,15,30.37,30.28,13,5,27,0.00
2012-6-12,72.0,59.9,43.0,26.0,22.5,19.0,42,25,15,30.37,30.18,20,5,40,0.00
2012-6-13,82.0,69.5,51.0,26.0,21.5,18.0,30,17,10,30.22,30.00,21,8,40,0.00
2012-6-14,78.0,63.0,50.0,46.0,34.1,24.0,59,35,18,30.22,30.06,13,4,29,0.02
2012-6-15,79.0,62.9,47.0,43.0,35.7,26.0,65,39,14,30.32,30.12,19,5,41,0.01
2012-6-16,76.0,59.6,44.0,44.0,37.1,-99.9,79,48,19,30.41,30.24,19,4,33,0.00
2012-6-17,82.0,68.5,51.0,32.0,27.1,19.0,39,23,12,30.29,29.98,33,13,68,0.00
2012-6-18,84.0,72.9,58.0,29.0,24.6,20.0,29,17,12,30.01,29.91,26,9,50,0.00
2012-6-19,83.0,69.9,57.0,32.0,25.8,16.0,26,19,14,30.09,29.88,27,8,54,0.00
2012-6-20,68.0,56.7,42.0,24.0,16.6,10.0,33,21,12,30.41,30.05,17,4,39,0.00
2012-6-21,79.0,63.9,40.0,41.0,33.2,20.0,62,35,17,30.43,30.21,13,3,26,0.00
2012-6-22,87.0,72.2,54.0,38.0,25.5,14.0,43,20,9,30.22,30.01,20,10,38,0.00
2012-6-23,89.0,73.5,52.0,28.0,21.7,14.0,28,15,9,30.24,30.04,21,6,31,0.00
2012-6-24,89.0,74.9,62.0,40.0,31.5,23.0,33,21,13,30.41,30.22,18,4,43,0.00
2012-6-25,91.0,75.0,54.0,43.0,37.2,31.0,51,28,12,30.38,30.16,11,1,22,0.00
2012-6-26,87.0,75.7,61.0,41.0,36.9,31.0,33,25,17,30.21,30.08,20,3,29,0.00
2012-6-27,84.0,71.5,61.0,51.0,41.3,31.0,55,34,22,30.32,30.13,17,4,23,0.01
2012-6-28,87.0,70.9,54.0,44.0,33.0,20.0,37,25,17,30.42,30.25,13,6,27,0.01
2012-6-29,87.0,74.1,63.0,42.0,37.0,31.0,42,28,15,30.37,30.22,19,2,27,0.00
2012-6-30,86.0,72.6,57.0,39.0,34.0,31.0,40,25,15,30.32,30.21,11,3,23,0.00
2012-7-1,88.0,72.9,52.0,40.0,30.7,19.0,44,24,8,30.31,30.11,17,2,27,0.00
2012-7-2,85.0,71.1,58.0,49.0,38.5,30.0,56,32,17,30.35,30.19,9,1,17,0.00
2012-7-3,84.0,71.0,58.0,46.0,42.0,37.0,61,38,19,30.29,30.11,11,3,19,0.00
2012-7-4,84.0,72.4,62.0,43.0,38.8,33.0,45,31,17,30.31,30.16,11,4,23,0.00
2012-7-5,83.0,66.4,57.0,55.0,49.7,43.0,86,58,25,30.35,30.14,20,5,30,0.23
2012-7-6,73.0,61.0,56.0,55.0,50.7,46.0,90,71,41,30.53,30.24,16,5,26,0.36
2012-7-7,67.0,57.5,54.0,56.0,52.8,51.0,94,85,63,30.53,30.43,11,3,19,0.23
2012-7-8,68.0,59.0,51.0,54.0,51.7,49.0,93,78,57,30.53,30.43,9,1,13,0.07
2012-7-9,76.0,62.6,50.0,52.0,48.8,42.0,93,65,33,30.55,30.42,10,2,15,0.01
2012-7-10,80.0,66.0,50.0,50.0,44.2,38.0,82,50,22,30.49,30.34,12,3,19,0.01
2012-7-11,82.0,69.5,57.0,47.0,42.8,37.0,65,41,20,30.48,30.31,17,5,31,0.00
2012-7-12,82.0,69.5,56.0,45.0,39.3,32.0,58,36,18,30.43,30.32,11,3,33,0.00
2012-7-13,84.0,69.8,56.0,44.0,39.8,33.0,54,36,18,30.45,30.34,11,5,30,0.02
2012-7-14,80.0,66.9,57.0,53.0,43.0,37.0,72,44,26,30.42,30.30,15,4,30,0.05
2012-7-15,82.0,68.2,60.0,49.0,45.6,42.0,61,46,26,30.34,30.21,18,8,26,0.03
2012-7-16,81.0,64.9,54.0,52.0,46.1,43.0,81,53,27,30.35,30.19,13,5,26,0.10
2012-7-17,80.0,66.1,54.0,53.0,42.6,34.0,74,46,24,30.34,30.16,12,5,24,0.14
2012-7-18,87.0,69.3,54.0,44.0,38.0,29.0,53,34,13,30.43,30.29,21,6,32,0.04
2012-7-19,89.0,71.2,51.0,45.0,41.0,37.0,65,37,18,30.51,30.36,13,6,22,0.00
2012-7-20,88.0,74.4,60.0,48.0,42.9,39.0,50,34,18,30.48,30.40,12,3,27,0.00
2012-7-21,86.0,69.0,59.0,55.0,46.6,41.0,72,47,22,30.49,30.38,15,3,29,0.56
2012-7-22,82.0,66.6,57.0,54.0,48.3,44.0,80,54,27,30.49,30.37,12,4,18,0.05
2012-7-23,86.0,70.5,60.0,52.0,47.5,43.0,64,46,24,30.44,30.28,10,4,22,0.03
2012-7-24,83.0,67.5,57.0,53.0,47.4,44.0,82,50,29,30.37,30.21,16,5,23,0.11
2012-7-25,78.0,63.8,54.0,52.0,48.1,39.0,82,60,25,30.37,30.19,10,4,27,0.09
2012-7-26,78.0,64.6,53.0,49.0,43.5,37.0,78,50,26,30.42,30.30,12,5,19,0.00
2012-7-27,83.0,65.5,51.0,48.0,43.8,37.0,73,49,20,30.46,30.32,16,5,31,0.01
2012-7-28,84.0,68.1,55.0,48.0,44.0,38.0,70,45,22,30.47,30.38,15,7,25,0.01
2012-7-29,75.0,65.1,57.0,54.0,48.1,43.0,85,56,35,30.49,30.38,11,4,19,0.18
2012-7-30,75.0,62.1,54.0,55.0,50.2,45.0,83,66,35,30.48,30.36,14,6,19,0.18
2012-7-31,81.0,68.3,55.0,49.0,46.0,41.0,70,47,27,30.43,30.33,16,5,28,0.01
2012-8-1,80.0,65.2,57.0,54.0,46.0,41.0,83,52,29,30.43,30.33,13,6,23,0.18
2012-8-2,82.0,69.5,57.0,46.0,38.3,29.0,65,36,15,30.36,30.21,15,5,23,0.10
2012-8-3,82.0,70.3,55.0,44.0,33.8,22.0,62,29,12,30.29,30.14,18,7,34,0.00
2012-8-4,76.0,60.3,48.0,44.0,38.9,30.0,80,50,20,30.51,30.30,11,3,19,0.00
2012-8-5,86.0,68.3,45.0,41.0,35.7,28.0,72,36,15,30.49,30.36,13,5,20,0.00
2012-8-6,82.0,69.5,59.0,46.0,38.7,29.0,60,33,23,30.52,30.42,19,6,28,0.00
2012-8-7,81.0,69.1,57.0,46.0,37.8,25.0,62,36,14,30.53,30.43,18,6,29,0.00
2012-8-8,84.0,68.7,53.0,35.0,29.9,25.0,36,25,16,30.56,30.45,13,6,20,0.00
2012-8-9,86.0,70.4,51.0,44.0,33.6,29.0,46,28,14,30.53,30.35,11,3,21,0.00
2012-8-10,83.0,68.1,55.0,46.0,41.5,38.0,57,40,22,30.47,30.28,14,6,26,0.00
2012-8-11,75.0,63.7,53.0,49.0,43.2,-99.9,65,49,32,30.45,30.21,15,6,29,0.01
2012-8-12,78.0,62.2,46.0,41.0,37.4,34.0,71,44,24,30.48,30.35,13,6,18,0.01
2012-8-13,74.0,62.7,53.0,51.0,40.2,35.0,71,45,29,30.46,30.27,15,8,30,0.03
2012-8-14,80.0,65.5,53.0,44.0,37.2,28.0,62,39,17,30.34,30.21,14,6,23,0.03
2012-8-15,82.0,67.0,52.0,44.0,37.3,30.0,70,37,15,30.40,30.21,13,5,30,0.00
2012-8-16,70.0,56.4,42.0,46.0,42.8,38.0,87,62,40,30.43,30.28,11,5,17,0.00
2012-8-17,82.0,63.7,46.0,44.0,39.5,31.0,81,45,16,30.38,30.23,16,6,25,0.00
2012-8-18,74.0,61.5,48.0,40.0,34.5,26.0,67,39,20,30.41,30.31,12,4,17,0.00
2012-8-19,77.0,60.5,40.0,33.0,28.8,24.0,54,32,17,30.39,30.26,15,4,21,0.00
2012-8-20,74.0,60.5,51.0,47.0,35.1,26.0,74,40,26,30.38,30.23,12,5,29,0.06
2012-8-21,77.0,62.2,44.0,43.0,38.7,36.0,77,46,24,30.39,30.24,14,5,26,0.06
2012-8-22,76.0,65.8,56.0,48.0,39.0,33.0,67,38,29,30.30,30.22,14,6,22,0.00
2012-8-23,74.0,62.6,53.0,51.0,46.9,42.0,89,60,33,30.31,30.15,10,4,18,0.04
2012-8-24,82.0,66.7,49.0,46.0,38.4,29.0,74,40,16,30.22,30.09,14,6,21,0.01
2012-8-25,81.0,64.5,44.0,34.0,25.2,18.0,48,25,11,30.31,30.15,11,3,22,0.00
2012-8-26,80.0,66.5,51.0,30.0,24.5,20.0,34,21,12,30.44,30.25,13,5,21,0.00
2012-8-27,86.0,68.5,51.0,46.0,35.6,23.0,45,31,20,30.53,30.40,10,4,18,0.00
2012-8-28,85.0,70.5,60.0,47.0,43.1,38.0,51,38,22,30.51,30.39,13,6,22,0.00
2012-8-29,85.0,71.0,60.0,45.0,42.8,38.0,54,38,21,30.40,30.23,13,5,25,0.00
2012-8-30,80.0,63.4,53.0,52.0,43.5,40.0,73,50,26,30.42,30.25,14,5,25,0.07
2012-8-31,82.0,63.0,50.0,47.0,43.0,39.0,77,52,22,30.45,30.24,14,5,25,0.01
2012-9-1,80.0,65.6,54.0,50.0,44.0,40.0,75,48,26,30.40,30.26,17,6,40,0.07
2012-9-2,75.0,63.3,51.0,48.0,42.1,34.0,77,49,26,30.40,30.30,13,5,28,0.07
2012-9-3,76.0,64.9,54.0,41.0,35.8,27.0,54,36,17,30.40,30.29,15,5,27,0.00
2012-9-4,77.0,64.7,53.0,37.0,30.3,22.0,52,31,14,30.37,30.24,16,6,29,0.00
2012-9-5,76.0,61.5,41.0,28.0,22.2,19.0,43,24,13,30.37,30.24,16,5,29,0.00
2012-9-6,79.0,66.7,53.0,33.0,26.1,17.0,34,22,15,30.35,30.20,14,5,28,0.00
2012-9-7,64.0,53.9,43.0,40.0,35.2,29.0,80,51,34,30.57,30.35,16,5,22,0.02
2012-9-8,70.0,53.6,38.0,35.0,25.7,13.0,70,40,13,30.56,30.45,12,6,19,0.02
2012-9-9,80.0,62.4,39.0,30.0,25.7,20.0,50,27,13,30.48,30.25,15,6,26,0.00
2012-9-10,77.0,66.6,56.0,38.0,32.0,25.0,44,28,21,30.31,30.17,15,7,22,0.00
2012-9-11,74.0,59.7,50.0,47.0,40.0,34.0,88,51,29,30.33,30.15,14,4,23,0.11
2012-9-12,62.0,51.3,42.0,46.0,43.1,39.0,89,74,51,30.51,30.22,11,3,26,0.11
2012-9-13,66.0,50.4,38.0,40.0,29.8,22.0,88,52,22,30.68,30.50,13,4,21,0.00
2012-9-14,73.0,55.4,34.0,32.0,25.8,21.0,64,36,15,30.65,30.40,14,6,21,0.00
2012-9-15,76.0,59.4,39.0,28.0,19.9,10.0,48,25,9,30.49,30.35,15,6,27,0.00
2012-9-16,74.0,60.8,48.0,29.0,20.3,11.0,34,21,15,30.37,30.22,15,6,28,0.00
2012-9-17,60.0,51.1,42.0,34.0,31.2,28.0,64,47,31,30.35,30.23,16,4,21,0.00
2012-9-18,73.0,54.1,36.0,30.0,27.1,24.0,68,39,20,30.39,30.28,11,5,21,0.00
2012-9-19,73.0,60.0,48.0,30.0,25.3,21.0,35,27,20,30.40,30.29,10,5,17,0.00
2012-9-20,72.0,58.2,43.0,29.0,23.7,20.0,40,27,17,30.38,30.28,13,4,18,0.00
2012-9-21,71.0,56.5,41.0,30.0,24.3,19.0,43,30,20,30.47,30.34,15,6,20,0.00
2012-9-22,73.0,56.2,38.0,31.0,24.5,-99.9,49,32,18,30.47,30.31,12,5,23,0.00
2012-9-23,75.0,63.0,49.0,35.0,26.8,22.0,40,26,16,30.39,30.30,15,6,24,0.00
2012-9-24,67.0,57.2,48.0,43.0,37.7,34.0,66,49,31,30.37,30.16,12,4,24,0.06
2012-9-25,61.0,50.1,43.0,43.0,38.7,34.0,89,66,40,30.25,30.12,14,4,20,0.02
2012-9-26,54.0,46.7,42.0,45.0,41.7,38.0,92,83,61,30.32,30.18,8,2,12,0.26
2012-9-27,58.0,47.3,42.0,43.0,39.6,37.0,89,75,49,30.37,30.29,10,4,17,0.09
2012-9-28,64.0,50.4,35.0,42.0,35.1,31.0,88,60,31,30.38,30.27,11,4,18,0.04
2012-9-29,69.0,53.6,38.0,37.0,32.0,28.0,72,47,23,30.37,30.26,18,6,32,0.00
2012-9-30,65.0,54.1,42.0,35.0,31.4,28.0,66,44,26,30.44,30.28,14,4,22,0.00
2012-10-1,61.0,50.9,39.0,37.0,32.8,27.0,80,52,32,30.50,30.30,10,3,17,0.00
2012-10-2,73.0,57.9,42.0,29.0,26.4,23.0,52,32,16,30.31,30.10,16,4,30,0.00
2012-10-3,67.0,51.8,31.0,27.0,22.8,10.0,71,36,11,30.40,30.02,22,8,45,0.00
2012-10-4,42.0,31.6,24.0,25.0,21.3,18.0,79,67,48,30.42,30.19,11,2,18,0.00
2012-10-5,41.0,31.7,24.0,23.0,21.7,19.0,85,67,48,30.28,30.10,12,5,17,0.00
2012-10-6,31.0,25.2,20.0,24.0,19.5,14.0,89,79,62,30.35,30.19,12,3,18,0.02
2012-10-7,48.0,33.1,16.0,16.0,9.3,5.0,71,41,20,30.23,30.11,14,6,26,0.01
2012-10-8,59.0,46.2,34.0,16.0,8.3,4.0,29,21,15,30.16,29.99,17,10,30,0.00
2012-10-9,59.0,45.5,32.0,26.0,16.2,7.0,71,34,17,30.24,30.00,15,4,31,0.00
2012-10-10,65.0,47.6,24.0,25.0,18.5,13.0,76,37,13,30.25,30.10,15,6,30,0.00
2012-10-11,64.0,52.4,40.0,35.0,30.8,25.0,67,45,28,30.30,30.15,13,2,25,0.00
2012-10-12,65.0,49.1,41.0,40.0,32.4,25.0,83,55,30,30.25,30.04,14,5,28,0.10
2012-10-13,53.0,42.3,33.0,40.0,33.9,29.0,90,73,49,30.32,29.96,13,6,28,0.26
2012-10-14,55.0,45.2,37.0,35.0,32.2,30.0,81,61,40,30.42,30.31,12,6,27,0.01
2012-10-15,65.0,50.8,40.0,32.0,28.1,22.0,66,44,23,30.34,30.05,18,9,37,0.00
2012-10-16,61.0,48.9,39.0,37.0,30.3,25.0,75,50,31,30.14,29.72,27,11,46,0.06
2012-10-17,41.0,35.8,29.0,25.0,12.5,7.0,56,39,25,30.11,29.82,17,6,41,0.05
2012-10-18,50.0,38.8,30.0,16.0,12.4,9.0,46,34,23,30.27,30.12,22,8,41,0.00
2012-10-19,61.0,48.4,39.0,24.0,19.9,16.0,44,33,21,30.25,30.04,19,10,33,0.00
2012-10-20,68.0,53.1,41.0,25.0,20.5,17.0,41,29,19,30.06,29.85,15,7,31,0.00
2012-10-21,65.0,51.5,37.0,22.0,19.2,17.0,44,29,17,30.08,29.86,17,5,27,0.00
2012-10-22,64.0,49.9,35.0,30.0,25.5,19.0,68,40,22,30.01,29.83,20,7,33,0.00
2012-10-23,59.0,47.8,32.0,26.0,23.6,20.0,72,41,22,30.01,29.76,23,11,48,0.00
2012-10-24,37.0,29.4,21.0,32.0,25.9,19.0,92,87,73,30.07,29.86,9,1,14,0.05
2012-10-25,29.0,21.4,18.0,23.0,18.5,16.0,91,88,78,30.27,30.05,6,1,11,0.25
2012-10-26,31.0,22.4,10.0,19.0,13.7,6.0,91,70,48,30.38,30.16,13,5,23,0.02
2012-10-27,38.0,29.8,19.0,26.0,19.1,12.0,80,65,48,30.20,30.08,16,6,26,0.02
2012-10-28,46.0,38.9,30.0,33.0,28.3,24.0,84,66,56,30.24,30.11,20,11,32,0.01
2012-10-29,55.0,46.0,39.0,33.0,30.2,27.0,72,55,39,30.28,30.21,18,8,29,0.00
2012-10-30,57.0,47.9,39.0,30.0,27.0,23.0,60,45,28,30.31,30.22,15,6,29,0.00
2012-10-31,60.0,49.1,39.0,26.0,24.3,22.0,53,38,26,30.34,30.24,17,7,27,0.00
2012-11-1,59.0,47.1,37.0,24.0,20.9,17.0,57,37,22,30.28,30.07,21,8,31,0.00
2012-11-2,51.0,41.4,31.0,26.0,21.5,18.0,66,46,32,30.28,30.10,14,3,25,0.00
2012-11-3,53.0,39.9,27.0,23.0,18.4,14.0,69,44,21,30.32,30.20,12,6,23,0.00
2012-11-4,51.0,42.5,37.0,26.0,21.3,13.0,60,43,29,30.43,30.27,21,8,33,0.00
2012-11-5,52.0,43.7,34.0,29.0,26.9,25.0,69,52,37,30.44,30.28,15,9,29,0.00
2012-11-6,58.0,47.3,38.0,29.0,25.9,21.0,63,44,28,30.42,30.31,15,8,24,0.00
2012-11-7,62.0,49.1,41.0,22.0,19.4,15.0,44,32,19,30.33,30.08,16,9,28,0.00
2012-11-8,61.0,47.2,35.0,23.0,17.5,11.0,45,31,21,30.10,29.85,17,6,27,0.00
2012-11-9,56.0,48.2,42.0,29.0,22.3,12.0,50,36,27,29.86,29.61,27,12,39,0.00
2012-11-10,42.0,28.4,10.0,32.0,18.8,6.0,90,68,45,29.78,29.52,18,7,30,0.12
2012-11-11,20.0,14.9,11.0,9.0,4.5,0.0,78,63,45,30.19,29.76,19,7,32,0.01
2012-11-12,36.0,23.1,10.0,7.0,3.2,-2.0,62,43,28,30.32,30.17,21,14,36,0.01
2012-11-13,38.0,29.4,24.0,20.0,14.4,3.0,70,53,35,30.34,30.24,19,9,29,0.01
2012-11-14,46.0,33.2,25.0,27.0,17.5,-99.9,81,55,29,30.29,30.17,15,7,32,0.00
2012-11-15,43.0,34.6,27.0,29.0,22.2,17.0,90,62,39,30.40,30.26,14,5,22,0.01
2012-11-16,54.0,40.7,31.0,30.0,17.7,13.0,82,41,22,30.32,30.15,16,8,28,0.03
2012-11-17,49.0,39.6,32.0,31.0,28.1,25.0,82,64,42,30.22,30.11,20,6,31,0.04
2012-11-18,45.0,38.1,31.0,32.0,26.9,23.0,77,64,47,30.20,30.05,17,7,27,0.02
2012-11-19,48.0,38.6,30.0,28.0,24.5,20.0,77,58,36,30.36,30.21,17,8,28,0.01
2012-11-20,53.0,42.5,34.0,23.0,20.5,17.0,62,43,28,30.35,30.22,21,11,29,0.00
2012-11-21,56.0,45.6,33.0,18.0,14.7,13.0,43,29,18,30.23,29.96,22,9,36,0.00
2012-11-22,43.0,36.7,24.0,25.0,10.6,1.0,66,35,18,30.47,29.99,24,10,41,0.00
2012-11-23,49.0,37.6,24.0,14.0,7.9,0.0,39,29,22,30.50,30.29,24,7,32,0.00
2012-11-24,53.0,42.8,36.0,16.0,12.6,10.0,38,29,20,30.30,30.06,18,8,34,0.00
2012-11-25,50.0,37.6,26.0,22.0,14.9,9.0,59,41,21,30.08,29.88,20,7,39,0.00
2012-11-26,40.0,30.9,22.0,20.0,12.0,1.0,84,48,28,30.28,30.01,16,4,23,0.00
2012-11-27,49.0,37.4,30.0,11.0,6.1,1.0,35,27,19,30.30,30.19,16,9,29,0.00
2012-11-28,50.0,40.3,33.0,15.0,10.1,6.0,37,29,22,30.31,30.14,20,8,32,0.00
2012-11-29,49.0,41.6,36.0,22.0,19.3,15.0,52,41,32,30.18,30.09,21,8,35,0.00
2012-11-30,49.0,40.1,34.0,25.0,22.0,20.0,57,49,38,30.18,29.93,18,8,29,0.00
2012-12-1,49.0,42.1,34.0,29.0,24.3,18.0,65,50,37,30.14,29.90,23,6,39,0.00
2012-12-2,53.0,42.0,27.0,27.0,18.8,15.0,63,40,26,30.11,29.69,29,10,46,0.00
2012-12-3,43.0,32.5,25.0,30.0,10.8,-1.0,79,42,23,30.28,29.78,22,10,46,0.03
2012-12-4,44.0,34.7,25.0,19.0,10.7,2.0,47,37,25,30.36,30.24,28,9,42,0.00
2012-12-5,53.0,42.4,35.0,26.0,22.5,19.0,60,46,27,30.28,29.97,22,8,37,0.00
2012-12-6,44.0,34.8,29.0,25.0,18.8,-99.9,69,55,33,30.07,29.87,16,6,31,0.00
2012-12-7,34.0,29.8,24.0,22.0,14.6,8.0,71,53,37,29.95,29.81,18,10,34,0.00
2012-12-8,26.0,20.2,8.0,20.0,10.2,-4.0,84,65,44,29.92,29.67,19,8,37,0.00
2012-12-9,11.0,5.5,-2.0,0.0,-4.3,-9.0,77,63,53,30.11,29.90,16,3,31,0.00
2012-12-10,23.0,14.5,8.0,11.0,5.1,-4.0,81,66,52,29.96,29.81,17,6,39,0.00
2012-12-11,27.0,19.7,5.0,15.0,9.9,0.0,81,66,53,29.93,29.78,27,10,36,0.00
2012-12-12,40.0,30.0,21.0,16.0,13.3,10.0,62,50,36,29.98,29.75,27,10,37,0.00
2012-12-13,42.0,33.9,19.0,16.0,12.9,9.0,65,42,32,30.02,29.95,15,7,24,0.00
2012-12-14,41.0,32.1,24.0,19.0,12.3,9.0,62,44,28,29.95,29.55,11,3,17,0.00
2012-12-15,33.0,28.0,20.0,23.0,19.0,13.0,78,69,55,29.75,29.70,12,6,22,0.00
2012-12-16,27.0,22.6,18.0,17.0,12.2,7.0,82,64,45,29.77,29.65,19,8,33,0.00
2012-12-17,34.0,27.1,22.0,23.0,16.3,10.0,83,64,53,29.75,29.54,24,12,40,0.00
2012-12-18,24.0,19.2,13.0,16.0,10.3,5.0,87,68,52,29.78,29.66,13,5,32,0.00
2012-12-19,13.0,8.0,0.0,10.0,3.1,-7.0,87,80,62,30.11,29.64,15,6,27,0.03
2012-12-20,26.0,15.8,4.0,4.0,-2.5,-8.0,59,44,34,30.29,30.11,20,10,32,0.01
2012-12-21,40.0,29.5,19.0,10.0,4.3,-1.0,42,34,27,30.26,30.11,21,9,34,0.00
2012-12-22,43.0,33.9,22.0,6.0,1.0,-2.0,37,25,17,30.11,29.92,21,12,33,0.00
2012-12-23,32.0,27.7,20.0,18.0,11.0,-2.0,69,51,24,30.06,29.85,18,8,33,0.00
2012-12-24,33.0,26.0,14.0,23.0,17.2,11.0,90,71,50,29.86,29.69,22,7,33,0.00
2012-12-25,16.0,9.1,1.0,11.0,4.6,-4.0,88,82,72,30.06,29.83,13,4,23,0.01
2012-12-26,32.0,20.3,13.0,19.0,9.5,3.0,87,64,45,29.90,29.54,15,5,22,0.02
2012-12-27,20.0,14.6,9.0,12.0,5.3,-0.0,76,66,53,29.81,29.56,11,4,21,0.01
2012-12-28,19.0,13.0,3.0,7.0,2.7,-2.0,80,63,49,30.09,29.81,19,8,29,0.00
2012-12-29,31.0,16.0,9.0,5.0,-0.7,-5.0,65,48,28,30.12,29.90,20,9,27,0.00
2012-12-30,31.0,18.0,8.0,9.0,2.0,-5.0,74,51,31,29.97,29.89,18,5,30,0.00
2012-12-31,15.0,8.6,2.0,8.0,3.2,-4.0,92,78,66,29.97,29.83,10,2,15,0.00
2013-1-1,19.0,11.2,3.0,4.0,0.7,-6.0,73,62,50,30.14,29.96,14,4,28,0.00